Terug naar catalogus

LEMUR 2 MJR092620

ActiefWeerSSO
NORAD 58340·PAYLOAD·🇺🇸 United States

Gelanceerd Nov 11, 2023 vanaf Vandenberg Space Force Base

Loading…

Volgende Passages (komende 24 uur)

TLE

VersSource: Space-Track

Epoch: Sep 13, 2026, 19:26 UTC

1 58340U 23174CN  26256.81020702  .00016084  00000-0  31055-3 0  9994
2 58340  97.3958 348.6544 0006278 146.5705 213.5943 15.47866865159343

Volg LEMUR 2 MJR092620 in realtime met AllMySat

Download on the App Store